Time,TemperatureF,DewpointF,PressureIn,WindDirection,WindDirectionDegrees,WindSpeedMPH,WindSpeedGustMPH,Humidity,HourlyPrecipIn,Conditions,Clouds,dailyrainin,SolarRadiationWatts/m^2,SoftwareType,DateUTC
2013-02-09 00:04:00,36.6,34.5,30.25,NNW,327,0.0,1.0,92,0.00,,,0.00,0,Wunderground v.1.15,2013-02-09 08:04:00,
2013-02-09 00:10:00,36.3,34.5,30.25,NNW,327,0.0,0.0,93,0.00,,,0.00,0,Wunderground v.1.15,2013-02-09 08:10:00,
2013-02-09 00:16:00,36.0,34.2,30.25,NNW,327,0.0,0.0,93,0.00,,,0.00,0,Wunderground v.1.15,2013-02-09 08:16:00,
2013-02-09 00:21:00,35.9,34.1,30.25,NNW,327,1.0,1.0,93,0.00,,,0.00,0,Wunderground v.1.15,2013-02-09 08:21:00,
2013-02-09 00:27:00,35.8,34.0,30.25,NNW,327,0.0,1.0,93,0.00,,,0.00,0,Wunderground v.1.15,2013-02-09 08:27:00,
2013-02-09 00:33:00,35.6,33.8,30.25,NNW,327,0.0,1.0,93,0.00,,,0.00,0,Wunderground v.1.15,2013-02-09 08:33:00,
2013-02-09 00:39:00,35.5,33.7,30.25,NNW,327,2.0,2.0,93,0.00,,,0.00,0,Wunderground v.1.15,2013-02-09 08:39:00,
2013-02-09 00:45:00,35.3,33.5,30.25,NNW,327,0.0,2.0,93,0.00,,,0.00,0,Wunderground v.1.15,2013-02-09 08:45:00,
2013-02-09 00:50:00,35.1,33.3,30.26,NNW,327,0.0,0.0,93,0.00,,,0.00,0,Wunderground v.1.15,2013-02-09 08:50:00,
2013-02-09 00:56:00,34.8,33.0,30.26,NNW,327,0.0,0.0,93,0.00,,,0.00,0,Wunderground v.1.15,2013-02-09 08:56:00,
2013-02-09 01:02:00,34.3,32.5,30.26,NNW,327,0.0,1.0,93,0.00,,,0.00,0,Wunderground v.1.15,2013-02-09 09:02:00,
2013-02-09 01:07:00,33.8,32.0,30.26,NNW,327,0.0,1.0,93,0.00,,,0.00,0,Wunderground v.1.15,2013-02-09 09:07:00,
2013-02-09 01:12:00,33.7,31.9,30.26,NNW,327,1.0,1.0,93,0.00,,,0.00,0,Wunderground v.1.15,2013-02-09 09:12:00,
2013-02-09 01:18:00,33.5,31.7,30.25,NNW,327,1.0,1.0,93,0.00,,,0.00,0,Wunderground v.1.15,2013-02-09 09:18:00,
2013-02-09 01:24:00,33.4,31.6,30.25,NNW,327,0.0,1.0,93,0.00,,,0.00,0,Wunderground v.1.15,2013-02-09 09:24:00,
2013-02-09 01:30:00,33.0,31.2,30.25,NNW,327,0.0,0.0,93,0.00,,,0.00,0,Wunderground v.1.15,2013-02-09 09:30:00,
2013-02-09 01:35:00,33.1,31.3,30.25,NNW,327,2.0,2.0,93,0.00,,,0.00,0,Wunderground v.1.15,2013-02-09 09:35:00,
2013-02-09 01:41:00,33.6,31.5,30.26,NNW,327,0.0,1.0,92,0.00,,,0.00,0,Wunderground v.1.15,2013-02-09 09:41:00,
2013-02-09 01:47:00,33.8,31.7,30.25,NNW,327,0.0,1.0,92,0.00,,,0.00,0,Wunderground v.1.15,2013-02-09 09:47:00,
2013-02-09 01:53:00,34.0,31.9,30.25,NNW,327,0.0,0.0,92,0.00,,,0.00,0,Wunderground v.1.15,2013-02-09 09:53:00,
2013-02-09 01:59:00,34.0,31.9,30.26,NNW,327,0.0,2.0,92,0.00,,,0.00,0,Wunderground v.1.15,2013-02-09 09:59:00,
2013-02-09 02:04:00,33.9,31.8,30.26,NNW,327,0.0,1.0,92,0.00,,,0.00,0,Wunderground v.1.15,2013-02-09 10:04:00,
2013-02-09 02:09:00,33.9,31.8,30.26,NNW,327,0.0,1.0,92,0.00,,,0.00,0,Wunderground v.1.15,2013-02-09 10:09:00,
2013-02-09 02:14:00,33.9,31.8,30.26,NNW,327,0.0,1.0,92,0.00,,,0.00,0,Wunderground v.1.15,2013-02-09 10:14:00,
2013-02-09 02:19:00,33.9,31.8,30.26,NNW,327,0.0,1.0,92,0.00,,,0.00,0,Wunderground v.1.15,2013-02-09 10:19:00,
2013-02-09 02:24:00,33.9,31.8,30.26,NNW,327,0.0,0.0,92,0.00,,,0.00,0,Wunderground v.1.15,2013-02-09 10:24:00,
2013-02-09 02:29:00,33.8,33.3,30.27,NNW,327,0.0,0.0,98,0.00,,,0.00,0,Wunderground v.1.15,2013-02-09 10:29:00,
2013-02-09 02:34:00,33.8,33.3,30.26,NNW,327,0.0,0.0,98,0.00,,,0.00,0,Wunderground v.1.15,2013-02-09 10:34:00,
2013-02-09 02:39:00,33.9,31.6,30.26,NNW,327,0.0,0.0,91,0.00,,,0.00,0,Wunderground v.1.15,2013-02-09 10:39:00,
2013-02-09 02:44:00,33.9,31.6,30.27,NNW,327,4.0,4.0,91,0.00,,,0.00,0,Wunderground v.1.15,2013-02-09 10:44:00,
2013-02-09 02:49:00,33.7,31.6,30.27,NNW,327,4.0,5.0,92,0.00,,,0.00,0,Wunderground v.1.15,2013-02-09 10:49:00,
2013-02-09 02:54:00,33.6,31.3,30.26,NNW,327,2.0,4.0,91,0.00,,,0.00,0,Wunderground v.1.15,2013-02-09 10:54:00,
2013-02-09 02:59:00,33.7,31.4,30.26,NNW,327,1.0,4.0,91,0.00,,,0.00,0,Wunderground v.1.15,2013-02-09 10:59:00,
2013-02-09 03:04:00,33.9,31.6,30.26,NNW,327,1.0,2.0,91,0.00,,,0.00,0,Wunderground v.1.15,2013-02-09 11:04:00,
2013-02-09 03:09:00,33.9,31.6,30.26,NNW,327,0.0,2.0,91,0.00,,,0.00,0,Wunderground v.1.15,2013-02-09 11:09:00,
2013-02-09 03:14:00,33.9,31.6,30.26,NNW,327,0.0,1.0,91,0.00,,,0.00,0,Wunderground v.1.15,2013-02-09 11:14:00,
2013-02-09 03:19:00,34.0,31.6,30.26,NNW,327,2.0,2.0,91,0.00,,,0.00,0,Wunderground v.1.15,2013-02-09 11:19:00,
2013-02-09 03:24:00,34.1,31.7,30.26,NNW,327,1.0,2.0,91,0.00,,,0.00,0,Wunderground v.1.15,2013-02-09 11:24:00,
2013-02-09 03:29:00,34.0,31.9,30.26,NNW,327,0.0,2.0,92,0.00,,,0.00,0,Wunderground v.1.15,2013-02-09 11:29:00,
2013-02-09 03:34:00,33.7,31.6,30.25,NNW,327,0.0,0.0,92,0.00,,,0.00,0,Wunderground v.1.15,2013-02-09 11:34:00,
2013-02-09 03:39:00,33.5,31.4,30.25,NNW,327,0.0,0.0,92,0.00,,,0.00,0,Wunderground v.1.15,2013-02-09 11:39:00,
2013-02-09 03:44:00,33.3,31.2,30.25,NNW,327,0.0,1.0,92,0.00,,,0.00,0,Wunderground v.1.15,2013-02-09 11:44:00,
2013-02-09 03:49:00,33.0,30.9,30.25,NNW,327,0.0,1.0,92,0.00,,,0.00,0,Wunderground v.1.15,2013-02-09 11:49:00,
2013-02-09 03:54:00,32.8,30.7,30.25,NNW,327,0.0,0.0,92,0.00,,,0.00,0,Wunderground v.1.15,2013-02-09 11:54:00,
2013-02-09 03:59:00,32.7,30.6,30.25,NNW,327,0.0,0.0,92,0.00,,,0.00,0,Wunderground v.1.15,2013-02-09 11:59:00,
2013-02-09 04:04:00,32.6,30.5,30.25,NNW,327,1.0,2.0,92,0.00,,,0.00,0,Wunderground v.1.15,2013-02-09 12:04:00,
2013-02-09 04:09:00,32.5,30.4,30.25,NNW,327,0.0,2.0,92,0.00,,,0.00,0,Wunderground v.1.15,2013-02-09 12:09:00,
2013-02-09 04:14:00,32.3,30.2,30.25,NNW,327,0.0,1.0,92,0.00,,,0.00,0,Wunderground v.1.15,2013-02-09 12:14:00,
2013-02-09 04:19:00,32.3,30.0,30.25,NNW,327,0.0,1.0,91,0.00,,,0.00,0,Wunderground v.1.15,2013-02-09 12:19:00,
2013-02-09 04:24:00,32.1,29.8,30.25,NNW,327,0.0,0.0,91,0.00,,,0.00,0,Wunderground v.1.15,2013-02-09 12:24:00,
2013-02-09 04:29:00,32.1,29.8,30.25,NNW,327,2.0,2.0,91,0.00,,,0.00,0,Wunderground v.1.15,2013-02-09 12:29:00,
2013-02-09 04:34:00,32.0,29.7,30.25,NNW,327,0.0,2.0,91,0.00,,,0.00,0,Wunderground v.1.15,2013-02-09 12:34:00,
2013-02-09 04:39:00,32.3,30.0,30.25,NNW,327,2.0,2.0,91,0.00,,,0.00,0,Wunderground v.1.15,2013-02-09 12:39:00,
2013-02-09 04:44:00,32.6,30.3,30.25,NNW,327,0.0,2.0,91,0.00,,,0.00,0,Wunderground v.1.15,2013-02-09 12:44:00,
2013-02-09 04:49:00,32.5,30.2,30.25,NNW,327,1.0,2.0,91,0.00,,,0.00,0,Wunderground v.1.15,2013-02-09 12:49:00,
2013-02-09 04:54:00,32.5,30.2,30.25,NNW,327,0.0,1.0,91,0.00,,,0.00,0,Wunderground v.1.15,2013-02-09 12:54:00,
2013-02-09 04:59:00,32.4,29.8,30.25,NNW,327,0.0,1.0,90,0.00,,,0.00,0,Wunderground v.1.15,2013-02-09 12:59:00,
2013-02-09 05:04:00,32.3,29.7,30.25,NNW,327,0.0,0.0,90,0.00,,,0.00,0,Wunderground v.1.15,2013-02-09 13:04:00,
2013-02-09 05:09:00,32.2,29.6,30.25,NNW,327,0.0,0.0,90,0.00,,,0.00,0,Wunderground v.1.15,2013-02-09 13:09:00,
2013-02-09 05:15:00,32.0,29.7,30.25,NNW,327,0.0,0.0,91,0.00,,,0.00,0,Wunderground v.1.15,2013-02-09 13:15:00,
2013-02-09 05:20:00,31.8,29.2,30.25,NNW,327,0.0,0.0,90,0.00,,,0.00,0,Wunderground v.1.15,2013-02-09 13:20:00,
2013-02-09 05:25:00,31.6,29.0,30.25,NNW,327,0.0,0.0,90,0.00,,,0.00,0,Wunderground v.1.15,2013-02-09 13:25:00,
2013-02-09 05:30:00,31.2,28.9,30.25,NNW,327,0.0,0.0,91,0.00,,,0.00,0,Wunderground v.1.15,2013-02-09 13:30:00,
2013-02-09 05:34:00,30.7,28.4,30.25,NNW,327,0.0,1.0,91,0.00,,,0.00,0,Wunderground v.1.15,2013-02-09 13:34:00,
2013-02-09 05:39:00,30.5,27.9,30.25,NNW,327,0.0,1.0,90,0.00,,,0.00,0,Wunderground v.1.15,2013-02-09 13:39:00,
2013-02-09 05:45:00,30.2,27.6,30.25,NNW,327,0.0,0.0,90,0.00,,,0.00,0,Wunderground v.1.15,2013-02-09 13:45:00,
2013-02-09 05:50:00,30.2,27.6,30.25,NNW,327,0.0,2.0,90,0.00,,,0.00,0,Wunderground v.1.15,2013-02-09 13:50:00,
2013-02-09 05:54:00,30.3,27.7,30.24,NNW,327,1.0,2.0,90,0.00,,,0.00,0,Wunderground v.1.15,2013-02-09 13:54:00,
2013-02-09 06:00:00,30.0,27.4,30.24,NNW,330,0.0,1.0,90,0.00,,,0.00,0,Wunderground v.1.15,2013-02-09 14:00:00,
2013-02-09 06:05:00,29.9,27.3,30.24,NNW,330,0.0,2.0,90,0.00,,,0.00,0,Wunderground v.1.15,2013-02-09 14:05:00,
2013-02-09 06:10:00,29.9,27.3,30.24,NNW,330,1.0,4.0,90,0.00,,,0.00,0,Wunderground v.1.15,2013-02-09 14:10:00,
2013-02-09 06:15:00,29.8,27.2,30.25,NNW,330,4.0,4.0,90,0.00,,,0.00,0,Wunderground v.1.15,2013-02-09 14:15:00,
2013-02-09 06:20:00,29.7,27.1,30.25,North,5,3.0,3.0,90,0.00,,,0.00,0,Wunderground v.1.15,2013-02-09 14:20:00,
2013-02-09 06:25:00,29.7,27.1,30.25,North,5,2.0,4.0,90,0.00,,,0.00,0,Wunderground v.1.15,2013-02-09 14:25:00,
2013-02-09 06:30:00,29.6,27.0,30.25,North,5,3.0,3.0,90,0.00,,,0.00,0,Wunderground v.1.15,2013-02-09 14:30:00,
2013-02-09 06:35:00,29.5,26.9,30.25,North,5,2.0,3.0,90,0.00,,,0.00,0,Wunderground v.1.15,2013-02-09 14:35:00,
2013-02-09 06:40:00,29.5,26.9,30.25,North,5,2.0,2.0,90,0.00,,,0.00,0,Wunderground v.1.15,2013-02-09 14:40:00,
2013-02-09 06:45:00,30.0,27.2,30.25,North,360,3.0,3.0,89,0.00,,,0.00,0,Wunderground v.1.15,2013-02-09 14:45:00,
2013-02-09 06:50:00,29.7,27.1,30.26,North,360,3.0,3.0,90,0.00,,,0.00,0,Wunderground v.1.15,2013-02-09 14:50:00,
2013-02-09 06:55:00,29.6,27.0,30.26,North,360,0.0,3.0,90,0.00,,,0.00,0,Wunderground v.1.15,2013-02-09 14:55:00,
2013-02-09 07:00:00,29.7,27.1,30.26,North,360,0.0,1.0,90,0.00,,,0.00,0,Wunderground v.1.15,2013-02-09 15:00:00,
2013-02-09 07:05:00,29.7,26.9,30.25,North,360,0.0,1.0,89,0.00,,,0.00,0,Wunderground v.1.15,2013-02-09 15:05:00,
2013-02-09 07:10:00,29.7,26.9,30.26,North,360,0.0,0.0,89,0.00,,,0.00,0,Wunderground v.1.15,2013-02-09 15:10:00,
2013-02-09 07:15:00,29.7,26.9,30.26,North,360,0.0,1.0,89,0.00,,,0.00,5,Wunderground v.1.15,2013-02-09 15:15:00,
2013-02-09 07:20:00,29.6,27.0,30.26,North,360,1.0,1.0,90,0.00,,,0.00,0,Wunderground v.1.15,2013-02-09 15:20:00,
2013-02-09 07:25:00,29.5,26.9,30.26,North,360,2.0,3.0,90,0.00,,,0.00,0,Wunderground v.1.15,2013-02-09 15:25:00,
2013-02-09 07:30:00,29.6,26.8,30.26,North,360,0.0,1.0,89,0.00,,,0.00,5,Wunderground v.1.15,2013-02-09 15:30:00,
2013-02-09 07:35:00,29.7,26.9,30.26,North,360,0.0,1.0,89,0.00,,,0.00,11,Wunderground v.1.15,2013-02-09 15:35:00,
2013-02-09 07:40:00,30.1,27.3,30.26,North,360,0.0,0.0,89,0.00,,,0.00,16,Wunderground v.1.15,2013-02-09 15:40:00,
2013-02-09 07:45:00,30.2,27.3,30.26,North,360,0.0,1.0,89,0.00,,,0.00,21,Wunderground v.1.15,2013-02-09 15:45:00,
2013-02-09 07:50:00,30.3,27.4,30.26,North,360,1.0,1.0,89,0.00,,,0.00,25,Wunderground v.1.15,2013-02-09 15:50:00,
2013-02-09 07:55:00,30.4,27.5,30.26,North,360,1.0,3.0,89,0.00,,,0.00,39,Wunderground v.1.15,2013-02-09 15:55:00,
2013-02-09 08:00:00,30.6,27.7,30.26,North,360,0.0,2.0,89,0.00,,,0.00,44,Wunderground v.1.15,2013-02-09 16:00:00,
2013-02-09 08:05:00,30.8,27.9,30.26,North,360,0.0,2.0,89,0.00,,,0.00,46,Wunderground v.1.15,2013-02-09 16:05:00,
2013-02-09 08:10:00,31.1,28.2,30.26,WNW,301,0.0,0.0,89,0.00,,,0.00,44,Wunderground v.1.15,2013-02-09 16:10:00,
2013-02-09 08:15:00,31.4,28.5,30.26,WNW,301,0.0,1.0,89,0.00,,,0.00,46,Wunderground v.1.15,2013-02-09 16:15:00,
2013-02-09 08:20:00,31.5,28.6,30.26,WNW,301,0.0,1.0,89,0.00,,,0.00,44,Wunderground v.1.15,2013-02-09 16:20:00,
2013-02-09 08:25:00,31.6,28.7,30.26,WNW,301,0.0,1.0,89,0.00,,,0.00,46,Wunderground v.1.15,2013-02-09 16:25:00,
2013-02-09 08:30:00,31.6,28.7,30.26,WNW,301,1.0,2.0,89,0.00,,,0.00,56,Wunderground v.1.15,2013-02-09 16:30:00,
2013-02-09 08:35:00,31.6,28.7,30.26,WNW,301,2.0,2.0,89,0.00,,,0.00,63,Wunderground v.1.15,2013-02-09 16:35:00,
2013-02-09 08:40:00,31.7,28.8,30.26,WNW,301,0.0,2.0,89,0.00,,,0.00,69,Wunderground v.1.15,2013-02-09 16:40:00,
2013-02-09 08:45:00,31.9,29.0,30.26,WNW,301,0.0,2.0,89,0.00,,,0.00,65,Wunderground v.1.15,2013-02-09 16:45:00,
2013-02-09 08:50:00,32.2,29.3,30.26,WNW,301,0.0,0.0,89,0.00,,,0.00,102,Wunderground v.1.15,2013-02-09 16:50:00,
2013-02-09 08:55:00,32.5,29.6,30.27,WNW,301,0.0,0.0,89,0.00,,,0.00,113,Wunderground v.1.15,2013-02-09 16:55:00,
2013-02-09 09:00:00,32.7,29.8,30.26,WNW,301,1.0,1.0,89,0.00,,,0.00,91,Wunderground v.1.15,2013-02-09 17:00:00,
2013-02-09 09:05:00,32.9,30.0,30.26,WNW,301,1.0,2.0,89,0.00,,,0.00,199,Wunderground v.1.15,2013-02-09 17:05:00,
2013-02-09 09:10:00,33.4,30.5,30.27,WNW,301,0.0,2.0,89,0.00,,,0.00,195,Wunderground v.1.15,2013-02-09 17:10:00,
2013-02-09 09:15:00,33.7,30.8,30.26,NW,306,0.0,2.0,89,0.00,,,0.00,160,Wunderground v.1.15,2013-02-09 17:15:00,
2013-02-09 09:20:00,34.2,31.3,30.26,NW,306,0.0,1.0,89,0.00,,,0.00,244,Wunderground v.1.15,2013-02-09 17:20:00,
2013-02-09 09:25:00,34.8,31.9,30.27,NW,306,0.0,2.0,89,0.00,,,0.00,241,Wunderground v.1.15,2013-02-09 17:25:00,
2013-02-09 09:30:00,35.1,32.2,30.27,NW,306,1.0,4.0,89,0.00,,,0.00,193,Wunderground v.1.15,2013-02-09 17:30:00,
2013-02-09 09:35:00,35.5,32.6,30.27,NW,306,1.0,4.0,89,0.00,,,0.00,241,Wunderground v.1.15,2013-02-09 17:35:00,
2013-02-09 09:40:00,36.2,33.3,30.27,North,360,0.0,1.0,89,0.00,,,0.00,271,Wunderground v.1.15,2013-02-09 17:40:00,
2013-02-09 09:45:00,36.8,33.9,30.27,ESE,121,1.0,2.0,89,0.00,,,0.00,225,Wunderground v.1.15,2013-02-09 17:45:00,
2013-02-09 09:50:00,37.2,34.5,30.27,SE,127,1.0,1.0,90,0.00,,,0.00,234,Wunderground v.1.15,2013-02-09 17:50:00,
2013-02-09 09:55:00,37.4,35.0,30.27,SE,127,1.0,5.0,91,0.00,,,0.00,149,Wunderground v.1.15,2013-02-09 17:55:00,
2013-02-09 10:00:00,37.4,35.3,30.27,SE,127,0.0,1.0,92,0.00,,,0.00,178,Wunderground v.1.15,2013-02-09 18:00:00,
2013-02-09 10:05:00,37.6,35.5,30.27,SE,127,0.0,1.0,92,0.00,,,0.00,265,Wunderground v.1.15,2013-02-09 18:05:00,
2013-02-09 10:10:00,37.9,36.1,30.27,SE,127,0.0,0.0,93,0.00,,,0.00,169,Wunderground v.1.15,2013-02-09 18:10:00,
2013-02-09 10:15:00,38.2,36.4,30.27,SE,127,0.0,0.0,93,0.00,,,0.00,218,Wunderground v.1.15,2013-02-09 18:15:00,
2013-02-09 10:21:00,38.8,36.9,30.27,SE,127,1.0,1.0,93,0.00,,,0.00,221,Wunderground v.1.15,2013-02-09 18:21:00,
2013-02-09 10:26:00,38.9,37.0,30.26,SE,127,1.0,4.0,93,0.00,,,0.00,292,Wunderground v.1.15,2013-02-09 18:26:00,
2013-02-09 10:31:00,38.8,36.9,30.27,ESE,105,2.0,2.0,93,0.00,,,0.00,285,Wunderground v.1.15,2013-02-09 18:31:00,
2013-02-09 10:36:00,39.1,37.2,30.27,ESE,105,1.0,4.0,93,0.00,,,0.00,373,Wunderground v.1.15,2013-02-09 18:36:00,
2013-02-09 10:41:00,39.5,37.6,30.27,East,86,1.0,2.0,93,0.00,,,0.00,325,Wunderground v.1.15,2013-02-09 18:41:00,
2013-02-09 10:46:00,40.1,38.2,30.27,ESE,123,0.0,5.0,93,0.00,,,0.00,369,Wunderground v.1.15,2013-02-09 18:46:00,
2013-02-09 10:51:00,40.1,38.0,30.27,ESE,123,0.0,1.0,92,0.00,,,0.00,357,Wunderground v.1.15,2013-02-09 18:51:00,
2013-02-09 10:56:00,40.3,37.9,30.27,ESE,123,1.0,1.0,91,0.00,,,0.00,248,Wunderground v.1.15,2013-02-09 18:56:00,
2013-02-09 11:01:00,40.5,38.1,30.27,ESE,123,0.0,0.0,91,0.00,,,0.00,220,Wunderground v.1.15,2013-02-09 19:01:00,
2013-02-09 11:06:00,40.6,38.2,30.27,ESE,123,2.0,2.0,91,0.00,,,0.00,258,Wunderground v.1.15,2013-02-09 19:06:00,
2013-02-09 11:11:00,40.6,37.9,30.27,ESE,114,1.0,4.0,90,0.00,,,0.00,237,Wunderground v.1.15,2013-02-09 19:11:00,
2013-02-09 11:16:00,40.8,38.1,30.27,ESE,118,2.0,4.0,90,0.00,,,0.00,255,Wunderground v.1.15,2013-02-09 19:16:00,
2013-02-09 11:21:00,40.9,38.2,30.27,ESE,118,0.0,4.0,90,0.00,,,0.00,229,Wunderground v.1.15,2013-02-09 19:21:00,
2013-02-09 11:26:00,41.2,38.2,30.27,ESE,118,2.0,4.0,89,0.00,,,0.00,290,Wunderground v.1.15,2013-02-09 19:26:00,
2013-02-09 11:31:00,41.6,38.6,30.27,ESE,118,0.0,1.0,89,0.00,,,0.00,297,Wunderground v.1.15,2013-02-09 19:31:00,
2013-02-09 11:36:00,41.9,38.9,30.27,NE,37,2.0,3.0,89,0.00,,,0.00,301,Wunderground v.1.15,2013-02-09 19:36:00,
2013-02-09 11:41:00,41.9,38.9,30.27,NE,35,1.0,1.0,89,0.00,,,0.00,306,Wunderground v.1.15,2013-02-09 19:41:00,
2013-02-09 11:46:00,42.0,39.0,30.27,ESE,122,1.0,4.0,89,0.00,,,0.00,241,Wunderground v.1.15,2013-02-09 19:46:00,
2013-02-09 11:54:00,42.2,39.2,30.27,ENE,76,0.0,1.0,89,0.00,,,0.00,332,Wunderground v.1.15,2013-02-09 19:54:00,
2013-02-09 11:59:00,42.5,39.5,30.26,SSE,148,1.0,5.0,89,0.00,,,0.00,339,Wunderground v.1.15,2013-02-09 19:59:00,
2013-02-09 12:04:00,42.9,39.9,30.25,SE,126,1.0,6.0,89,0.00,,,0.00,353,Wunderground v.1.15,2013-02-09 20:04:00,
2013-02-09 12:09:00,43.0,39.7,30.26,SE,126,1.0,6.0,88,0.00,,,0.00,304,Wunderground v.1.15,2013-02-09 20:09:00,
2013-02-09 12:14:00,43.0,39.7,30.26,SE,124,1.0,4.0,88,0.00,,,0.00,279,Wunderground v.1.15,2013-02-09 20:14:00,
2013-02-09 12:19:00,43.3,39.7,30.25,SE,124,1.0,4.0,87,0.00,,,0.00,285,Wunderground v.1.15,2013-02-09 20:19:00,
2013-02-09 12:24:00,43.8,40.2,30.26,SE,124,0.0,4.0,87,0.00,,,0.00,287,Wunderground v.1.15,2013-02-09 20:24:00,
2013-02-09 12:29:00,44.1,40.2,30.26,SE,124,1.0,4.0,86,0.00,,,0.00,308,Wunderground v.1.15,2013-02-09 20:29:00,
2013-02-09 12:34:00,44.3,40.1,30.25,SE,135,2.0,4.0,85,0.00,,,0.00,285,Wunderground v.1.15,2013-02-09 20:34:00,
2013-02-09 12:39:00,44.5,40.6,30.25,SSW,194,0.0,4.0,86,0.00,,,0.00,341,Wunderground v.1.15,2013-02-09 20:39:00,
2013-02-09 12:44:00,45.0,41.1,30.25,SE,140,2.0,6.0,86,0.00,,,0.00,394,Wunderground v.1.15,2013-02-09 20:44:00,
2013-02-09 12:49:00,45.5,40.9,30.25,SSW,206,1.0,6.0,84,0.00,,,0.00,636,Wunderground v.1.15,2013-02-09 20:49:00,
2013-02-09 12:54:00,45.8,40.9,30.25,SSW,206,0.0,3.0,83,0.00,,,0.00,422,Wunderground v.1.15,2013-02-09 20:54:00,
2013-02-09 12:59:00,45.8,40.9,30.24,SSW,206,0.0,3.0,83,0.00,,,0.00,345,Wunderground v.1.15,2013-02-09 20:59:00,
2013-02-09 13:04:00,46.0,41.1,30.24,SSW,206,0.0,2.0,83,0.00,,,0.00,264,Wunderground v.1.15,2013-02-09 21:04:00,
2013-02-09 13:09:00,46.0,40.8,30.24,SSW,206,0.0,2.0,82,0.00,,,0.00,158,Wunderground v.1.15,2013-02-09 21:09:00,
2013-02-09 13:14:00,46.2,40.7,30.24,SSW,206,2.0,2.0,81,0.00,,,0.00,292,Wunderground v.1.15,2013-02-09 21:14:00,
2013-02-09 13:19:00,46.4,41.2,30.24,SSW,206,2.0,3.0,82,0.00,,,0.00,274,Wunderground v.1.15,2013-02-09 21:19:00,
2013-02-09 13:24:00,46.3,40.8,30.24,ESE,119,4.0,6.0,81,0.00,,,0.00,281,Wunderground v.1.15,2013-02-09 21:24:00,
2013-02-09 13:29:00,46.1,40.9,30.24,SW,234,2.0,6.0,82,0.00,,,0.00,248,Wunderground v.1.15,2013-02-09 21:29:00,
2013-02-09 13:34:00,46.1,40.9,30.24,SSW,207,1.0,4.0,82,0.00,,,0.00,223,Wunderground v.1.15,2013-02-09 21:34:00,
2013-02-09 13:39:00,46.2,41.0,30.24,SSW,207,0.0,4.0,82,0.00,,,0.00,232,Wunderground v.1.15,2013-02-09 21:39:00,
2013-02-09 13:44:00,46.3,40.8,30.24,SSW,207,0.0,3.0,81,0.00,,,0.00,232,Wunderground v.1.15,2013-02-09 21:44:00,
2013-02-09 13:49:00,46.3,40.8,30.24,SSW,211,0.0,3.0,81,0.00,,,0.00,230,Wunderground v.1.15,2013-02-09 21:49:00,
2013-02-09 13:54:00,46.4,40.6,30.24,SSE,163,0.0,2.0,80,0.00,,,0.00,225,Wunderground v.1.15,2013-02-09 21:54:00,
2013-02-09 13:59:00,46.4,40.6,30.24,SSE,163,0.0,2.0,80,0.00,,,0.00,214,Wunderground v.1.15,2013-02-09 21:59:00,
2013-02-09 14:04:00,46.6,40.8,30.23,SSE,163,2.0,4.0,80,0.00,,,0.00,221,Wunderground v.1.15,2013-02-09 22:04:00,
2013-02-09 14:09:00,46.4,40.2,30.23,East,85,2.0,5.0,79,0.00,,,0.00,214,Wunderground v.1.15,2013-02-09 22:09:00,
2013-02-09 14:14:00,46.6,40.8,30.23,SSE,157,2.0,4.0,80,0.00,,,0.00,229,Wunderground v.1.15,2013-02-09 22:14:00,
2013-02-09 14:19:00,46.8,41.0,30.23,SSE,157,1.0,4.0,80,0.00,,,0.00,179,Wunderground v.1.15,2013-02-09 22:19:00,
2013-02-09 14:24:00,46.7,40.5,30.23,ESE,108,0.0,4.0,79,0.00,,,0.00,132,Wunderground v.1.15,2013-02-09 22:24:00,
2013-02-09 14:29:00,46.7,40.5,30.23,ESE,108,0.0,4.0,79,0.00,,,0.00,158,Wunderground v.1.15,2013-02-09 22:29:00,
2013-02-09 14:34:00,46.8,40.6,30.23,ESE,121,1.0,2.0,79,0.00,,,0.00,181,Wunderground v.1.15,2013-02-09 22:34:00,
2013-02-09 14:39:00,46.9,40.4,30.23,ESE,121,0.0,2.0,78,0.00,,,0.00,183,Wunderground v.1.15,2013-02-09 22:39:00,
2013-02-09 14:44:00,47.0,40.8,30.23,SSW,206,1.0,4.0,79,0.00,,,0.00,179,Wunderground v.1.15,2013-02-09 22:44:00,
2013-02-09 14:49:00,47.0,40.5,30.23,SSW,204,0.0,4.0,78,0.00,,,0.00,141,Wunderground v.1.15,2013-02-09 22:49:00,
2013-02-09 14:54:00,47.0,40.5,30.23,SSW,204,0.0,1.0,78,0.00,,,0.00,156,Wunderground v.1.15,2013-02-09 22:54:00,
2013-02-09 14:59:00,47.2,40.7,30.23,SSW,204,0.0,1.0,78,0.00,,,0.00,163,Wunderground v.1.15,2013-02-09 22:59:00,
2013-02-09 15:04:00,47.4,40.9,30.23,SSW,204,0.0,0.0,78,0.00,,,0.00,171,Wunderground v.1.15,2013-02-09 23:04:00,
2013-02-09 15:09:00,47.4,40.9,30.23,SSW,204,0.0,3.0,78,0.00,,,0.00,186,Wunderground v.1.15,2013-02-09 23:09:00,
2013-02-09 15:14:00,47.3,40.5,30.23,SSW,204,0.0,2.0,77,0.00,,,0.00,174,Wunderground v.1.15,2013-02-09 23:14:00,
2013-02-09 15:19:00,47.6,41.1,30.23,SSW,204,2.0,3.0,78,0.00,,,0.00,134,Wunderground v.1.15,2013-02-09 23:19:00,
2013-02-09 15:24:00,47.6,40.7,30.23,SSW,204,0.0,2.0,77,0.00,,,0.00,146,Wunderground v.1.15,2013-02-09 23:24:00,
2013-02-09 15:29:00,47.8,40.9,30.23,SSW,204,0.0,2.0,77,0.00,,,0.00,155,Wunderground v.1.15,2013-02-09 23:29:00,
2013-02-09 15:34:00,47.8,40.6,30.23,SSW,204,0.0,1.0,76,0.00,,,0.00,192,Wunderground v.1.15,2013-02-09 23:34:00,
2013-02-09 15:39:00,48.0,40.8,30.23,SSW,204,1.0,3.0,76,0.00,,,0.00,202,Wunderground v.1.15,2013-02-09 23:39:00,
2013-02-09 15:44:00,48.1,40.9,30.23,SSW,204,3.0,5.0,76,0.00,,,0.00,250,Wunderground v.1.15,2013-02-09 23:44:00,
2013-02-09 15:49:00,48.1,41.2,30.23,SSW,204,2.0,5.0,77,0.00,,,0.00,148,Wunderground v.1.15,2013-02-09 23:49:00,
2013-02-09 15:54:00,48.0,40.8,30.24,SSW,204,1.0,4.0,76,0.00,,,0.00,123,Wunderground v.1.15,2013-02-09 23:54:00,
2013-02-09 15:59:00,47.9,41.0,30.24,SSW,204,4.0,5.0,77,0.00,,,0.00,128,Wunderground v.1.15,2013-02-09 23:59:00,
2013-02-09 16:04:00,47.7,40.8,30.24,SSW,204,2.0,5.0,77,0.00,,,0.00,83,Wunderground v.1.15,2013-02-10 00:04:00,
2013-02-09 16:09:00,47.4,41.2,30.24,SSW,204,3.0,5.0,79,0.00,,,0.00,67,Wunderground v.1.15,2013-02-10 00:09:00,
2013-02-09 16:14:00,47.4,41.2,30.24,SSW,204,3.0,4.0,79,0.00,,,0.00,65,Wunderground v.1.15,2013-02-10 00:14:00,
2013-02-09 16:19:00,47.4,41.5,30.24,SSW,204,0.0,4.0,80,0.00,,,0.00,51,Wunderground v.1.15,2013-02-10 00:19:00,
2013-02-09 16:24:00,47.3,41.4,30.24,SSW,204,2.0,3.0,80,0.00,,,0.00,35,Wunderground v.1.15,2013-02-10 00:24:00,
2013-02-09 16:29:00,47.3,41.8,30.24,SSW,204,1.0,3.0,81,0.00,,,0.00,25,Wunderground v.1.15,2013-02-10 00:29:00,
2013-02-09 16:34:00,47.3,42.1,30.24,SSW,204,2.0,3.0,82,0.00,,,0.00,18,Wunderground v.1.15,2013-02-10 00:34:00,
2013-02-09 16:39:00,47.2,42.3,30.25,SSW,204,1.0,3.0,83,0.00,,,0.00,12,Wunderground v.1.15,2013-02-10 00:39:00,
2013-02-09 16:44:00,47.2,42.3,30.25,SSW,204,1.0,3.0,83,0.00,,,0.00,9,Wunderground v.1.15,2013-02-10 00:44:00,
2013-02-09 16:49:00,47.1,42.2,30.25,SSW,204,2.0,3.0,83,0.00,,,0.00,7,Wunderground v.1.15,2013-02-10 00:49:00,
2013-02-09 16:54:00,47.0,42.4,30.25,SSW,205,3.0,5.0,84,0.00,,,0.00,5,Wunderground v.1.15,2013-02-10 00:54:00,
2013-02-09 16:59:00,46.9,42.3,30.25,SSW,211,3.0,5.0,84,0.00,,,0.00,0,Wunderground v.1.15,2013-02-10 00:59:00,
2013-02-09 17:04:00,46.7,42.1,30.25,SW,224,3.0,5.0,84,0.00,,,0.00,0,Wunderground v.1.15,2013-02-10 01:04:00,
2013-02-09 17:09:00,46.7,42.1,30.25,SW,224,1.0,5.0,84,0.00,,,0.00,0,Wunderground v.1.15,2013-02-10 01:09:00,
2013-02-09 17:15:00,46.5,42.2,30.25,SW,224,2.0,4.0,85,0.00,,,0.00,0,Wunderground v.1.15,2013-02-10 01:15:00,
2013-02-09 17:20:00,46.3,42.0,30.25,SW,225,2.0,3.0,85,0.00,,,0.00,0,Wunderground v.1.15,2013-02-10 01:20:00,
2013-02-09 17:25:00,46.2,42.2,30.25,SW,225,2.0,4.0,86,0.00,,,0.00,0,Wunderground v.1.15,2013-02-10 01:25:00,
2013-02-09 17:30:00,46.2,41.9,30.25,SW,225,0.0,1.0,85,0.00,,,0.00,0,Wunderground v.1.15,2013-02-10 01:30:00,
2013-02-09 17:35:00,46.2,42.2,30.25,SW,225,0.0,1.0,86,0.00,,,0.00,0,Wunderground v.1.15,2013-02-10 01:35:00,
2013-02-09 17:40:00,46.2,41.9,30.25,SW,225,0.0,1.0,85,0.00,,,0.00,0,Wunderground v.1.15,2013-02-10 01:40:00,
2013-02-09 17:45:00,46.1,41.8,30.25,SW,225,0.0,1.0,85,0.00,,,0.00,0,Wunderground v.1.15,2013-02-10 01:45:00,
2013-02-09 17:50:00,46.1,41.8,30.25,SW,225,0.0,0.0,85,0.00,,,0.00,0,Wunderground v.1.15,2013-02-10 01:50:00,
2013-02-09 17:55:00,46.0,42.0,30.25,SW,225,0.0,1.0,86,0.00,,,0.00,0,Wunderground v.1.15,2013-02-10 01:55:00,
2013-02-09 18:00:00,46.0,42.0,30.25,SW,225,1.0,3.0,86,0.00,,,0.00,0,Wunderground v.1.15,2013-02-10 02:00:00,
2013-02-09 18:05:00,45.8,41.9,30.25,SW,225,0.0,3.0,86,0.00,,,0.00,0,Wunderground v.1.15,2013-02-10 02:05:00,
2013-02-09 18:10:00,45.7,41.8,30.26,SW,225,0.0,2.0,86,0.00,,,0.00,0,Wunderground v.1.15,2013-02-10 02:10:00,
2013-02-09 18:15:00,45.7,41.8,30.26,SW,225,0.0,2.0,86,0.00,,,0.00,0,Wunderground v.1.15,2013-02-10 02:15:00,
2013-02-09 18:20:00,45.7,41.8,30.26,SW,225,0.0,0.0,86,0.00,,,0.00,0,Wunderground v.1.15,2013-02-10 02:20:00,
2013-02-09 18:25:00,45.7,41.8,30.25,SW,225,0.0,0.0,86,0.00,,,0.00,0,Wunderground v.1.15,2013-02-10 02:25:00,
2013-02-09 18:30:00,45.6,42.0,30.26,SW,225,0.0,0.0,87,0.00,,,0.00,0,Wunderground v.1.15,2013-02-10 02:30:00,
2013-02-09 18:35:00,45.4,41.8,30.26,SW,225,0.0,0.0,87,0.00,,,0.00,0,Wunderground v.1.15,2013-02-10 02:35:00,
2013-02-09 18:40:00,45.2,41.9,30.26,SW,225,0.0,0.0,88,0.00,,,0.00,0,Wunderground v.1.15,2013-02-10 02:40:00,
2013-02-09 18:45:00,45.1,41.8,30.26,SW,225,0.0,2.0,88,0.00,,,0.00,0,Wunderground v.1.15,2013-02-10 02:45:00,
2013-02-09 18:51:00,45.0,42.0,30.26,SW,225,0.0,0.0,89,0.00,,,0.00,0,Wunderground v.1.15,2013-02-10 02:51:00,
2013-02-09 18:56:00,44.8,41.8,30.25,SW,225,0.0,0.0,89,0.00,,,0.00,0,Wunderground v.1.15,2013-02-10 02:56:00,
2013-02-09 19:01:00,44.7,41.7,30.25,SW,225,0.0,0.0,89,0.00,,,0.00,0,Wunderground v.1.15,2013-02-10 03:01:00,
2013-02-09 19:06:00,44.5,41.5,30.25,SW,225,0.0,0.0,89,0.00,,,0.00,0,Wunderground v.1.15,2013-02-10 03:06:00,
2013-02-09 19:11:00,44.3,41.6,30.25,SW,225,0.0,0.0,90,0.00,,,0.00,0,Wunderground v.1.15,2013-02-10 03:11:00,
2013-02-09 19:16:00,44.3,41.6,30.25,SW,225,0.0,0.0,90,0.00,,,0.00,0,Wunderground v.1.15,2013-02-10 03:16:00,
2013-02-09 19:21:00,44.1,41.4,30.25,SW,225,0.0,0.0,90,0.00,,,0.00,0,Wunderground v.1.15,2013-02-10 03:21:00,
2013-02-09 19:26:00,44.0,41.5,30.25,SW,225,0.0,0.0,91,0.00,,,0.00,0,Wunderground v.1.15,2013-02-10 03:26:00,
2013-02-09 19:31:00,44.0,41.5,30.25,SW,225,0.0,0.0,91,0.00,,,0.00,0,Wunderground v.1.15,2013-02-10 03:31:00,
2013-02-09 19:36:00,44.0,41.5,30.25,SW,225,0.0,0.0,91,0.00,,,0.00,0,Wunderground v.1.15,2013-02-10 03:36:00,
2013-02-09 19:41:00,44.0,41.5,30.26,SW,225,0.0,0.0,91,0.00,,,0.00,0,Wunderground v.1.15,2013-02-10 03:41:00,
2013-02-09 19:46:00,44.0,41.5,30.26,SW,225,0.0,0.0,91,0.00,,,0.00,0,Wunderground v.1.15,2013-02-10 03:46:00,
2013-02-09 19:51:00,44.0,41.5,30.26,SW,225,0.0,1.0,91,0.00,,,0.00,0,Wunderground v.1.15,2013-02-10 03:51:00,
2013-02-09 19:56:00,43.9,41.4,30.26,SW,225,1.0,1.0,91,0.00,,,0.00,0,Wunderground v.1.15,2013-02-10 03:56:00,
2013-02-09 20:01:00,43.8,41.3,30.26,SW,225,1.0,1.0,91,0.00,,,0.00,0,Wunderground v.1.15,2013-02-10 04:01:00,
2013-02-09 20:06:00,43.8,41.6,30.26,SW,225,1.0,2.0,92,0.00,,,0.00,0,Wunderground v.1.15,2013-02-10 04:06:00,
2013-02-09 20:11:00,43.7,41.5,30.26,SW,225,1.0,2.0,92,0.00,,,0.00,0,Wunderground v.1.15,2013-02-10 04:11:00,
2013-02-09 20:16:00,43.6,41.4,30.26,SW,225,1.0,2.0,92,0.00,,,0.00,0,Wunderground v.1.15,2013-02-10 04:16:00,
2013-02-09 20:21:00,43.5,41.3,30.26,SW,225,1.0,1.0,92,0.00,,,0.00,0,Wunderground v.1.15,2013-02-10 04:21:00,
2013-02-09 20:26:00,43.4,41.2,30.26,SW,225,0.0,1.0,92,0.00,,,0.00,0,Wunderground v.1.15,2013-02-10 04:26:00,
2013-02-09 20:31:00,43.4,41.2,30.26,SW,225,0.0,1.0,92,0.00,,,0.00,0,Wunderground v.1.15,2013-02-10 04:31:00,
2013-02-09 20:36:00,43.5,41.3,30.26,SW,225,0.0,1.0,92,0.00,,,0.00,0,Wunderground v.1.15,2013-02-10 04:36:00,
2013-02-09 20:41:00,43.5,41.3,30.26,SW,225,0.0,0.0,92,0.00,,,0.00,0,Wunderground v.1.15,2013-02-10 04:41:00,
2013-02-09 20:46:00,43.5,41.3,30.27,SW,225,0.0,0.0,92,0.00,,,0.00,0,Wunderground v.1.15,2013-02-10 04:46:00,
2013-02-09 20:51:00,43.5,41.3,30.26,SW,225,0.0,1.0,92,0.00,,,0.00,0,Wunderground v.1.15,2013-02-10 04:51:00,
2013-02-09 20:56:00,43.7,41.5,30.27,SW,225,0.0,1.0,92,0.00,,,0.00,0,Wunderground v.1.15,2013-02-10 04:56:00,
2013-02-09 21:00:00,43.7,41.5,30.27,SW,225,1.0,1.0,92,0.00,,,0.00,0,Wunderground v.1.15,2013-02-10 05:00:00,
2013-02-09 21:05:00,43.8,41.6,30.27,SW,225,1.0,3.0,92,0.00,,,0.00,0,Wunderground v.1.15,2013-02-10 05:05:00,
2013-02-09 21:10:00,43.8,41.3,30.27,SW,225,1.0,2.0,91,0.00,,,0.00,0,Wunderground v.1.15,2013-02-10 05:10:00,
2013-02-09 21:15:00,43.9,41.4,30.27,SW,225,1.0,2.0,91,0.00,,,0.00,0,Wunderground v.1.15,2013-02-10 05:15:00,
2013-02-09 21:20:00,43.8,41.3,30.27,SW,225,2.0,2.0,91,0.00,,,0.00,0,Wunderground v.1.15,2013-02-10 05:20:00,
2013-02-09 21:25:00,43.7,41.2,30.27,SW,225,1.0,2.0,91,0.00,,,0.00,0,Wunderground v.1.15,2013-02-10 05:25:00,
2013-02-09 21:30:00,43.7,41.5,30.27,SW,225,1.0,2.0,92,0.00,,,0.00,0,Wunderground v.1.15,2013-02-10 05:30:00,
2013-02-09 21:35:00,43.6,41.4,30.27,SW,225,1.0,3.0,92,0.00,,,0.00,0,Wunderground v.1.15,2013-02-10 05:35:00,
2013-02-09 21:40:00,43.6,41.4,30.27,SW,225,2.0,2.0,92,0.00,,,0.00,0,Wunderground v.1.15,2013-02-10 05:40:00,
2013-02-09 21:45:00,43.4,41.2,30.27,SW,229,1.0,3.0,92,0.00,,,0.00,0,Wunderground v.1.15,2013-02-10 05:45:00,
2013-02-09 21:50:00,43.4,41.2,30.28,SW,229,2.0,2.0,92,0.00,,,0.00,0,Wunderground v.1.15,2013-02-10 05:50:00,
2013-02-09 21:55:00,43.5,41.3,30.28,SW,229,1.0,4.0,92,0.00,,,0.00,0,Wunderground v.1.15,2013-02-10 05:55:00,
2013-02-09 22:00:00,43.6,41.4,30.28,SW,229,2.0,2.0,92,0.00,,,0.00,0,Wunderground v.1.15,2013-02-10 06:00:00,
2013-02-09 22:05:00,43.7,41.5,30.28,SW,229,3.0,3.0,92,0.00,,,0.00,0,Wunderground v.1.15,2013-02-10 06:05:00,
2013-02-09 22:10:00,43.7,41.5,30.28,NW,322,2.0,4.0,92,0.00,,,0.00,0,Wunderground v.1.15,2013-02-10 06:10:00,
2013-02-09 22:15:00,43.7,41.5,30.28,NNW,336,5.0,6.0,92,0.00,,,0.00,0,Wunderground v.1.15,2013-02-10 06:15:00,
2013-02-09 22:20:00,43.8,41.6,30.28,NW,323,1.0,4.0,92,0.00,,,0.00,0,Wunderground v.1.15,2013-02-10 06:20:00,
2013-02-09 22:25:00,43.8,41.6,30.28,NW,323,1.0,5.0,92,0.00,,,0.00,0,Wunderground v.1.15,2013-02-10 06:25:00,
2013-02-09 22:30:00,43.8,41.6,30.28,NW,323,2.0,2.0,92,0.00,,,0.00,0,Wunderground v.1.15,2013-02-10 06:30:00,
2013-02-09 22:35:00,43.7,41.5,30.28,NW,323,0.0,4.0,92,0.00,,,0.00,0,Wunderground v.1.15,2013-02-10 06:35:00,
2013-02-09 22:40:00,43.4,41.2,30.28,NW,323,0.0,1.0,92,0.00,,,0.00,0,Wunderground v.1.15,2013-02-10 06:40:00,
2013-02-09 22:45:00,43.0,40.8,30.29,NW,323,1.0,2.0,92,0.00,,,0.00,0,Wunderground v.1.15,2013-02-10 06:45:00,
2013-02-09 22:50:00,42.8,40.6,30.29,NW,323,1.0,2.0,92,0.00,,,0.00,0,Wunderground v.1.15,2013-02-10 06:50:00,
2013-02-09 22:55:00,42.7,40.8,30.29,NW,323,0.0,2.0,93,0.00,,,0.00,0,Wunderground v.1.15,2013-02-10 06:55:00,
2013-02-09 23:00:00,42.6,40.7,30.29,NW,323,0.0,0.0,93,0.00,,,0.00,0,Wunderground v.1.15,2013-02-10 07:00:00,
2013-02-09 23:05:00,42.5,40.3,30.29,NW,323,0.0,0.0,92,0.00,,,0.00,0,Wunderground v.1.15,2013-02-10 07:05:00,
2013-02-09 23:10:00,42.3,40.4,30.29,NW,323,0.0,0.0,93,0.00,,,0.00,0,Wunderground v.1.15,2013-02-10 07:10:00,
2013-02-09 23:15:00,42.2,40.3,30.29,NW,323,0.0,0.0,93,0.00,,,0.00,0,Wunderground v.1.15,2013-02-10 07:15:00,
2013-02-09 23:20:00,42.0,40.1,30.29,NW,323,0.0,0.0,93,0.00,,,0.00,0,Wunderground v.1.15,2013-02-10 07:20:00,
2013-02-09 23:25:00,41.8,39.9,30.29,NW,323,0.0,0.0,93,0.00,,,0.00,0,Wunderground v.1.15,2013-02-10 07:25:00,
2013-02-09 23:30:00,41.7,39.5,30.29,NW,323,0.0,0.0,92,0.00,,,0.00,0,Wunderground v.1.15,2013-02-10 07:30:00,
2013-02-09 23:35:00,41.6,39.4,30.29,NW,323,1.0,2.0,92,0.00,,,0.00,0,Wunderground v.1.15,2013-02-10 07:35:00,
2013-02-09 23:40:00,41.5,39.3,30.29,NW,323,0.0,0.0,92,0.00,,,0.00,0,Wunderground v.1.15,2013-02-10 07:40:00,
2013-02-09 23:45:00,41.5,39.3,30.30,NW,323,0.0,2.0,92,0.00,,,0.00,0,Wunderground v.1.15,2013-02-10 07:45:00,
2013-02-09 23:50:00,41.3,39.2,30.30,NW,323,2.0,2.0,92,0.00,,,0.00,0,Wunderground v.1.15,2013-02-10 07:50:00,
2013-02-09 23:55:00,41.0,38.9,30.30,NW,323,1.0,2.0,92,0.00,,,0.00,0,Wunderground v.1.15,2013-02-10 07:55:00,